Flag for France Weather past 2 weeks in Paris, France

Now
55 °F

Mostly cloudy.


Feels Like: 55 °F
Forecast: 45 / 63 °F
Wind: 2 mph from North

Location: Villacoublay

Current Time: Oct 25, 2014 at 12:41:18 PM

Latest Report: Oct 25, 2014 at 12:00 PM


Visibility: N/A

Pressure: 30.12 "Hg

Humidity: 94%

Dew point: 54 °F

Location of ParisLocation

Historic Weather in Paris — Graph

°F

Paris temperature yesterday

Maximum temperature yesterday: 57 °F (at 1:30 PM)
Minimum temperature yesterday: 52 °F (at 12:00 AM)
Average temperature yesterday: 53 °F

Past Weeks' High & Low Weather Summary

 TemperatureHumidityPressure
High73 °F (Oct 18, 2:00 PM)100% (Oct 11, 6:30 AM)30.33 "Hg (Oct 11, 6:30 AM)
Low43 °F (Oct 22, 7:00 AM)49% (Oct 14, 3:30 PM)29.56 "Hg (Oct 13, 3:00 AM)
Average57 °F82%29.96 "Hg
* Reported Oct 10 11:00 AM — Oct 25 11:30 AM, Paris, Weather by CustomWeather, © 2014

Note: Actual official high and low records may vary slightly from our data, if they occured in-between our weather recording intervals... More about our weather records

Advertising

Paris weather history for previous 24 hours

 ConditionsComfort  
Time TempWeatherWind HumidityBarometerVisibility
11:30 AM
Oct 25
55 °FPartly sunny.3 mph94%30.12 "HgN/A
11:00 AM54 °FFog.3 mph94%30.12 "Hg3 mi
10:30 AM54 °FOvercast.1 mph88%30.12 "HgN/A
10:00 AM54 °FLow clouds.2 mph88%30.12 "HgN/A
9:30 AM54 °FMostly cloudy.3 mph88%30.09 "HgN/A
9:00 AM54 °FOvercast.3 mph88%30.09 "HgN/A
8:30 AM54 °FMostly cloudy.2 mph88%30.09 "HgN/A
8:00 AM54 °FMostly cloudy.3 mph88%30.07 "HgN/A
7:30 AM54 °FOvercast.3 mph88%30.07 "HgN/A
7:00 AM54 °FOvercast.3 mph88%30.07 "HgN/A
6:30 AM54 °FOvercast.2 mph82%30.07 "HgN/A
6:00 AM54 °FMostly cloudy.No wind82%30.07 "HgN/A
5:30 AM54 °FOvercast.2 mph82%30.07 "HgN/A
5:00 AM54 °FMostly cloudy.3 mph82%30.07 "HgN/A
4:30 AM54 °FMostly cloudy.3 mph82%30.07 "HgN/A
4:00 AM54 °FOvercast.3 mph82%30.07 "HgN/A
3:30 AM54 °FOvercast.5 mph82%30.07 "HgN/A
3:00 AM54 °FOvercast.6 mph82%30.07 "HgN/A
2:30 AM52 °FOvercast.6 mph88%30.07 "HgN/A
2:00 AM52 °FOvercast.3 mph88%30.07 "HgN/A
1:30 AM52 °FOvercast.3 mph88%30.07 "HgN/A
1:00 AM52 °FMostly cloudy.3 mph88%30.07 "HgN/A
12:30 AM52 °FPartly cloudy.2 mph88%30.07 "HgN/A
12:00 AM52 °FPartly cloudy.5 mph88%30.07 "HgN/A
11:30 PM
Oct 24
52 °FPassing clouds.5 mph88%30.07 "HgN/A
11:00 PM52 °FPassing clouds.5 mph88%30.07 "HgN/A
10:30 PM54 °FPassing clouds.5 mph82%30.07 "HgN/A
10:00 PM54 °FOvercast.6 mph88%30.07 "HgN/A
9:30 PM54 °FOvercast.5 mph88%30.07 "HgN/A
9:00 PM54 °FMostly cloudy.2 mph88%30.07 "HgN/A
8:30 PM54 °FMostly cloudy.3 mph88%30.07 "HgN/A
8:00 PM54 °FOvercast.3 mph88%30.07 "HgN/A
7:30 PM54 °FMostly cloudy.3 mph88%30.07 "HgN/A
7:00 PM54 °FMostly cloudy.5 mph88%30.07 "HgN/A
6:30 PM54 °FBroken clouds.5 mph88%30.07 "HgN/A
6:00 PM55 °FLight rain. Mostly cloudy.6 mph82%30.07 "HgN/A
5:30 PM55 °FCloudy.7 mph77%30.07 "HgN/A
5:00 PM55 °FMostly cloudy.7 mph77%30.07 "HgN/A
4:30 PM57 °FOvercast.8 mph72%30.07 "HgN/A
4:00 PM57 °FMostly cloudy.8 mph72%30.07 "HgN/A
3:30 PM57 °FBroken clouds.9 mph72%30.07 "HgN/A
3:00 PM57 °FMostly cloudy.9 mph67%30.09 "HgN/A
2:30 PM57 °FOvercast.9 mph72%30.09 "HgN/A
2:00 PM57 °FMostly cloudy.9 mph67%30.09 "HgN/A
1:30 PM57 °FOvercast.9 mph67%30.12 "HgN/A
1:00 PM55 °FOvercast.10 mph72%30.12 "HgN/A
12:30 PM55 °FPartly sunny.7 mph72%30.12 "HgN/A
12:00 PM54 °FMostly cloudy.7 mph72%30.12 "HgN/A
Weather by CustomWeather, © 2014

See weather overviewHow to use our weather pages